Overview Statistics Trail Chart Weather Telemetry Raw packets
 

This is the latest recevied weather packets stored in our database for station/object OE5MMP-13. If no packets are shown the sender has not sent any weather packets the latest 10 day(s).

<< 15 16 17 18 19 20 21 >>
Time Temp. Humidity Pressure Rain* Wind** Luminosity Snow
1788438192 23.33° C 56% 1022.5 hPa 0 mm - 249 W/m² -
1788437591 23.33° C 55% 1022.5 hPa 0 mm - 277 W/m² -
1788436991 23.33° C 55% 1022.5 hPa 0 mm - 187 W/m² -
1788436391 22.78° C 57% 1022.5 hPa 0 mm - 300 W/m² -
1788435791 23.33° C 56% 1022.5 hPa 0 mm - 480 W/m² -
1788435191 22.78° C 56% 1022.3 hPa 0 mm - 758 W/m² -
1788434591 22.78° C 58% 1022.4 hPa 0 mm - 141 W/m² -
1788433991 22.22° C 59% 1022.4 hPa 0 mm - 323 W/m² -
1788433391 22.22° C 59% 1022.5 hPa 0 mm - 475 W/m² -
1788432791 22.22° C 59% 1022.6 hPa 0 mm - 423 W/m² -
1788432191 22.78° C 59% 1022.7 hPa 0 mm - 390 W/m² -
1788431591 22.78° C 58% 1022.7 hPa 0 mm - 711 W/m² -
1788430991 22.22° C 58% 1022.6 hPa 0 mm - 334 W/m² -
1788430391 22.78° C 57% 1023 hPa 0 mm - 380 W/m² -
1788429791 22.78° C 58% 1023 hPa 0 mm - 721 W/m² -
1788429191 22.78° C 58% 1023.1 hPa 0 mm - 684 W/m² -
1788428590 22.22° C 58% 1022.8 hPa 0 mm - 813 W/m² -
1788427991 21.67° C 58% 1023 hPa 0 mm - 571 W/m² -
1788427391 21.67° C 59% 1023 hPa 0 mm - 366 W/m² -
1788426790 21.67° C 59% 1023 hPa 0 mm - 667 W/m² -
1788426190 21.11° C 60% 1022.9 hPa 0 mm - 636 W/m² -
1788425590 21.11° C 60% 1023 hPa 0 mm - 305 W/m² -
1788424991 21.11° C 61% 1023.2 hPa 0 mm - 593 W/m² -
1788424390 20.56° C 61% 1023.2 hPa 0 mm - 274 W/m² -
1788423790 20.56° C 60% 1023.3 hPa 0 mm - 311 W/m² -

* Rain latest hour (hover to see other rain measurements)
** Current wind speed in m/s (hover to see current wind gust speed)